Regional Weather Roundup
Issued by NWS

Home | Current Version | Previous Version | Text Only | Print | Product List | Glossary On
Versions: 1 2 3 4 5 6 7 8 9 10 11 12 13 14 15 16 17 18 19 20 21 22 23 24 25 26 27 28 29 30 31 32 33 34 35 36 37 38 39 40 41 42 43 44 45 46 47 48 49 50
000
ASUS43 KOAX 041010
RWRNE

WEATHER ROUNDUP FOR NEBRASKA
NATIONAL WEATHER SERVICE OMAHA NE
500 AM CDT SAT JUL 04 2015

NOTES: SATELLITE DATA IS BEING USED TO AUGMENT CLOUD COVER ABOVE
       12000 FEET.
       "FAIR" INDICATES FEW OR NO CLOUDS BELOW 12,000 FEET WITH NO
       SIGNIFICANT WEATHER AND/OR OBSTRUCTIONS TO VISIBILITY.

  * THESE STATIONS DO NOT REPORT WEATHER SUCH AS RAIN...SNOW OR FOG.

NEZ001>004-019>022-054>056-041100-
NEBRASKA PANHANDLE

CITY           SKY/WX    TMP DP  RH WIND       PRES   REMARKS
SCOTTSBLUFF    MOCLDY    67  60  78 E8        29.96S
ALLIANCE       PTCLDY    63  60  90 SE9       29.97F
CHADRON        PTCLDY    71  59  65 S15       29.90F
KIMBALL          N/A    N/A N/A N/A MISG        N/A
SIDNEY         CLEAR     63  59  87 S7        30.02F
$$

NEZ057>060-069>072-079>082-041100-
SOUTHWEST NEBRASKA

CITY           SKY/WX    TMP DP  RH WIND       PRES   REMARKS
NORTH PLATTE   PTCLDY    66  59  78 SE8       30.00S
IMPERIAL       PTCLDY    65  58  78 SE8       30.00S
LEXINGTON      CLEAR     64  61  91 SE5       30.00F
MCCOOK         CLEAR     63  59  87 SE5       29.99F
OGALLALA       MOCLDY    65  60  83 CALM      30.00S
$$

NEZ005>010-023>029-035>040-094-041100-
NORTH CENTRAL NEBRASKA

CITY           SKY/WX    TMP DP  RH WIND       PRES   REMARKS
VALENTINE      PTCLDY    61  59  93 S7        29.95F
AINSWORTH      CLEAR     63  62  97 S7        29.97F
BROKEN BOW     PTCLDY    62  60  93 S6        30.00F FOG
O`NEILL        CLEAR     61  61  99 S5        29.98F FOG
ORD            CLEAR     59  58  96 CALM      29.98F FOG
THEDFORD       CLEAR     64  61  89 S7        30.00S
$$

NEZ041-046>049-061>064-073>077-083>087-041100-
SOUTH CENTRAL NEBRASKA

CITY           SKY/WX    TMP DP  RH WIND       PRES   REMARKS
GRAND ISLAND   CLEAR     62  59  90 S6        30.01S
AURORA         CLEAR     59  59 100 SW3       30.00S FOG
HASTINGS       CLEAR     62  60  93 S3        30.00F
HEBRON         CLEAR     59  57  92 CALM      30.00S FOG
HOLDREGE       CLEAR     60  58  93 CALM      30.01S
KEARNEY *      CLEAR     61  57  88 S5        30.01S
YORK           CLOUDY    59  59 100 CALM      30.00S FOG
$$

NEZ011>018-030>034-042>045-041100-
NORTHEAST NEBRASKA

CITY           SKY/WX    TMP DP  RH WIND       PRES   REMARKS
NORFOLK        CLEAR     57  56  96 CALM      29.98F FOG
ALBION         CLEAR     58  56  93 CALM      30.00R FOG
BLAIR          CLEAR     61  55  82 CALM      29.99R
COLUMBUS *       N/A     55  50  82 CALM      29.98S VSB 1/4
FREMONT        CLEAR     61  58  90 CALM      29.99F
TEKAMAH        CLEAR     56  54  93 CALM      29.99S FOG
WAYNE            N/A     55  55  97 CALM      29.99S FOG
$$

NEZ050>053-065>068-078-088>093-041100-
SOUTHEAST NEBRASKA

CITY           SKY/WX    TMP DP  RH WIND       PRES   REMARKS
LINCOLN        CLEAR     59  57  93 CALM      29.99S FOG
OMAHA EPPLEY   CLEAR     57  57 100 NW5       29.99S FOG
BEATRICE       CLEAR     58  56  93 CALM      29.99S
FALLS CITY     CLEAR     60  58  92 CALM      29.98F
NEBRASKA CITY  HAZE      60  54  78 CALM      29.99S VSB 1/2
PLATTSMOUTH    CLEAR     58  55  89 SE3       29.99S
$$

NEZ044-045-051>053-067-041100-
OMAHA AREA

CITY           SKY/WX    TMP DP  RH WIND       PRES   REMARKS
OMAHA EPPLEY   CLEAR     57  57 100 NW5       29.99S FOG
BLAIR          CLEAR     61  55  82 CALM      29.99R
FREMONT        CLEAR     61  58  90 CALM      29.99F
MILLARD          N/A     58  57  96 CALM      29.99R FOG
OFFUTT AFB     CLEAR     54  54  99 CALM      29.98R FOG
PLATTSMOUTH    CLEAR     58  55  89 SE3       29.99S
WAHOO          FAIR      60  59  95 CALM      29.99S FOG
$$


USA.gov is the U.S. government's official web portal to all federal, state and local government web resources and services.